When you browse on this site, cookies collect data to enhance your experience and personalize the content and advertising you see.
Visit our Privacy Policy to learn more. By continuing to use the site, you agree to this use of cookies and data.
  • In Spain
  • List of Countries
  • For 7 days
  • Water Temperature
  • Satellite Maps
  • Weather Map
  • Weather Widgets
  • user-avatar
    Login

    Hourly Weather Satif

    Today, 23 March, Saturday

    Time Temperature Precipitation Wind Pressure Humidity
    00:00 +5°C° 0 mm 2 mps 672 mmHg 94%
    01:00 +5°C° 0.5 mm 2 mps 672 mmHg 93%
    02:00 +3°C° 0.5 mm 3 mps 672 mmHg 93%
    03:00 +3°C° 0.5 mm 3 mps 672 mmHg 92%
    04:00 +3°C° 0.7 mm 3 mps 672 mmHg 93%
    05:00 +4°C° 0.7 mm 3 mps 672 mmHg 93%
    06:00 +4°C° 0 mm 3 mps 673 mmHg 94%
    07:00 +4°C° 0.4 mm 3 mps 673 mmHg 92%
    08:00 +5°C° 0.4 mm 3 mps 673 mmHg 91%
    09:00 +7°C° 0.4 mm 3 mps 674 mmHg 89%
    10:00 +7°C° 0.2 mm 3 mps 674 mmHg 88%
    11:00 +8°C° 0.2 mm 3 mps 674 mmHg 88%
    12:00 +8°C° 0.2 mm 3 mps 674 mmHg 88%
    13:00 +8°C° 0.1 mm 3 mps 674 mmHg 87%
    14:00 +8°C° 0.1 mm 2 mps 674 mmHg 85%
    15:00 +9°C° 0.1 mm 2 mps 674 mmHg 84%
    16:00 +8°C° 0.1 mm 2 mps 674 mmHg 87%
    17:00 +8°C° 0.1 mm 2 mps 674 mmHg 89%
    18:00 +8°C° 0.1 mm 2 mps 674 mmHg 91%
    19:00 +8°C° 0 mm 1 mps 674 mmHg 92%
    20:00 +8°C° 0 mm 1 mps 674 mmHg 94%
    21:00 +7°C° 0 mm 0 mps 675 mmHg 95%
    22:00 +7°C° 0 mm 1 mps 675 mmHg 95%
    23:00 +7°C° 0 mm 1 mps 674 mmHg 95%

    Tomorrow, 24 March, Sunday

    Time Temperature Precipitation Wind Pressure Humidity
    00:00 +6°C° 0 mm 1 mps 674 mmHg 95%
    01:00 +6°C° 0 mm 1 mps 674 mmHg 95%
    02:00 +6°C° 0 mm 1 mps 674 mmHg 94%
    03:00 +5°C° 0 mm 1 mps 674 mmHg 93%
    04:00 +5°C° 0 mm 1 mps 674 mmHg 92%
    05:00 +5°C° 0 mm 1 mps 674 mmHg 92%
    06:00 +5°C° 0 mm 1 mps 674 mmHg 91%
    07:00 +7°C° 0 mm 1 mps 675 mmHg 82%
    08:00 +10°C° 0 mm 1 mps 675 mmHg 73%
    09:00 +12°C° 0 mm 2 mps 676 mmHg 64%
    10:00 +13°C° 0 mm 2 mps 676 mmHg 59%
    11:00 +14°C° 0 mm 2 mps 677 mmHg 53%
    12:00 +15°C° 0 mm 2 mps 677 mmHg 48%
    13:00 +15°C° 0.1 mm 2 mps 676 mmHg 48%
    14:00 +14°C° 0.1 mm 3 mps 676 mmHg 48%
    15:00 +14°C° 0.1 mm 3 mps 675 mmHg 48%
    16:00 +13°C° 0.2 mm 3 mps 675 mmHg 52%
    17:00 +12°C° 0.2 mm 3 mps 675 mmHg 56%
    18:00 +12°C° 0.2 mm 2 mps 674 mmHg 60%
    19:00 +10°C° 0 mm 2 mps 675 mmHg 61%
    20:00 +10°C° 0 mm 2 mps 675 mmHg 61%
    21:00 +9°C° 0 mm 2 mps 675 mmHg 62%
    22:00 +9°C° 0 mm 2 mps 675 mmHg 62%
    23:00 +8°C° 0 mm 2 mps 675 mmHg 62%

    Day after tomorrow, 25 March, Monday

    Time Temperature Precipitation Wind Pressure Humidity
    00:00 +8°C° 0 mm 2 mps 674 mmHg 61%
    01:00 +8°C° 0 mm 2 mps 674 mmHg 63%
    02:00 +8°C° 0 mm 2 mps 674 mmHg 64%
    03:00 +8°C° 0 mm 2 mps 673 mmHg 65%
    04:00 +7°C° 0 mm 2 mps 673 mmHg 67%
    05:00 +7°C° 0 mm 2 mps 673 mmHg 68%
    06:00 +7°C° 0 mm 2 mps 673 mmHg 70%
    07:00 +9°C° 0 mm 2 mps 674 mmHg 64%
    08:00 +12°C° 0 mm 2 mps 674 mmHg 58%
    09:00 +12°C° 0 mm 3 mps 675 mmHg 52%
    10:00 +13°C° 0 mm 3 mps 675 mmHg 49%
    11:00 +14°C° 0 mm 3 mps 675 mmHg 45%
    12:00 +16°C° 0 mm 3 mps 675 mmHg 42%
    13:00 +16°C° 0.1 mm 3 mps 674 mmHg 43%
    14:00 +16°C° 0.1 mm 3 mps 673 mmHg 44%
    15:00 +16°C° 0.1 mm 3 mps 673 mmHg 45%
    16:00 +15°C° 0 mm 2 mps 672 mmHg 51%
    17:00 +14°C° 0 mm 2 mps 672 mmHg 58%
    18:00 +12°C° 0 mm 1 mps 672 mmHg 64%
    19:00 +12°C° 0 mm 1 mps 672 mmHg 67%
    20:00 +10°C° 0 mm 0 mps 672 mmHg 70%
    21:00 +9°C° 0 mm 0 mps 672 mmHg 74%
    22:00 +9°C° 0 mm 0 mps 672 mmHg 73%
    23:00 +10°C° 0 mm 1 mps 672 mmHg 72%

    26 March, Tuesday

    Time Temperature Precipitation Wind Pressure Humidity
    00:00 +10°C° 0 mm 1 mps 671 mmHg 71%
    01:00 +10°C° 0 mm 1 mps 671 mmHg 71%
    02:00 +10°C° 0 mm 1 mps 671 mmHg 70%
    03:00 +10°C° 0 mm 1 mps 671 mmHg 70%
    04:00 +10°C° 0 mm 1 mps 671 mmHg 73%
    05:00 +9°C° 0 mm 1 mps 671 mmHg 76%
    06:00 +9°C° 0 mm 1 mps 671 mmHg 79%
    07:00 +10°C° 0.1 mm 1 mps 671 mmHg 76%
    08:00 +11°C° 0.1 mm 1 mps 672 mmHg 73%
    09:00 +12°C° 0.1 mm 1 mps 672 mmHg 70%
    10:00 +12°C° 0.3 mm 1 mps 672 mmHg 69%
    11:00 +13°C° 0.3 mm 1 mps 672 mmHg 69%
    12:00 +13°C° 0.3 mm 1 mps 673 mmHg 68%
    13:00 +13°C° 0.4 mm 2 mps 672 mmHg 71%
    14:00 +13°C° 0.4 mm 2 mps 672 mmHg 74%
    15:00 +11°C° 0.4 mm 3 mps 672 mmHg 77%
    16:00 +10°C° 0.8 mm 3 mps 672 mmHg 82%
    17:00 +9°C° 0.8 mm 3 mps 672 mmHg 87%
    18:00 +8°C° 0.8 mm 3 mps 671 mmHg 92%
    19:00 +7°C° 0.3 mm 3 mps 672 mmHg 92%
    20:00 +7°C° 0.3 mm 3 mps 672 mmHg 91%
    21:00 +5°C° 0.3 mm 3 mps 672 mmHg 90%
    22:00 +5°C° 0 mm 3 mps 672 mmHg 90%
    23:00 +5°C° 0 mm 3 mps 672 mmHg 90%

    27 March, Wednesday

    Time Temperature Precipitation Wind Pressure Humidity
    00:00 +5°C° 0 mm 2 mps 672 mmHg 90%
    01:00 +5°C° 0 mm 2 mps 672 mmHg 90%
    02:00 +5°C° 0 mm 2 mps 672 mmHg 89%
    03:00 +5°C° 0 mm 2 mps 672 mmHg 88%
    04:00 +5°C° 0 mm 2 mps 672 mmHg 87%
    05:00 +5°C° 0 mm 2 mps 672 mmHg 85%
    06:00 +5°C° 0 mm 2 mps 672 mmHg 84%
    07:00 +5°C° 0 mm 2 mps 672 mmHg 80%
    08:00 +5°C° 0 mm 3 mps 672 mmHg 76%
    09:00 +5°C° 0 mm 3 mps 673 mmHg 72%
    10:00 +7°C° 0 mm 3 mps 673 mmHg 67%
    11:00 +9°C° 0 mm 3 mps 673 mmHg 61%
    12:00 +10°C° 0 mm 4 mps 673 mmHg 56%
    13:00 +10°C° 0 mm 4 mps 673 mmHg 56%
    14:00 +11°C° 0 mm 4 mps 673 mmHg 55%
    15:00 +10°C° 0 mm 5 mps 673 mmHg 54%
    16:00 +10°C° 0 mm 4 mps 673 mmHg 60%
    17:00 +8°C° 0 mm 4 mps 673 mmHg 65%
    18:00 +8°C° 0 mm 4 mps 673 mmHg 70%
    19:00 +8°C° 0 mm 3 mps 673 mmHg 74%
    20:00 +7°C° 0 mm 3 mps 674 mmHg 79%
    21:00 +5°C° 0 mm 3 mps 674 mmHg 84%
    22:00 +5°C° 0 mm 3 mps 673 mmHg 86%
    23:00 +5°C° 0 mm 2 mps 673 mmHg 87%

    28 March, Thursday

    Time Temperature Precipitation Wind Pressure Humidity
    00:00 +5°C° 0 mm 2 mps 673 mmHg 89%
    01:00 +4°C° 0 mm 2 mps 673 mmHg 89%
    02:00 +4°C° 0 mm 2 mps 672 mmHg 89%
    03:00 +3°C° 0 mm 2 mps 672 mmHg 89%
    04:00 +3°C° 0 mm 2 mps 672 mmHg 87%
    05:00 +3°C° 0 mm 2 mps 673 mmHg 85%
    06:00 +3°C° 0 mm 2 mps 673 mmHg 83%
    07:00 +5°C° 0 mm 2 mps 673 mmHg 73%
    08:00 +6°C° 0 mm 2 mps 674 mmHg 63%
    09:00 +8°C° 0 mm 2 mps 675 mmHg 53%
    10:00 +9°C° 0 mm 2 mps 675 mmHg 48%
    11:00 +10°C° 0 mm 2 mps 675 mmHg 43%
    12:00 +13°C° 0 mm 2 mps 675 mmHg 38%
    13:00 +13°C° 0 mm 2 mps 675 mmHg 38%
    14:00 +13°C° 0 mm 2 mps 675 mmHg 38%
    15:00 +14°C° 0 mm 2 mps 675 mmHg 38%
    16:00 +13°C° 0 mm 2 mps 675 mmHg 46%
    17:00 +10°C° 0 mm 3 mps 675 mmHg 55%
    18:00 +9°C° 0 mm 3 mps 674 mmHg 64%
    19:00 +8°C° 0 mm 3 mps 675 mmHg 72%
    20:00 +8°C° 0 mm 2 mps 675 mmHg 80%
    21:00 +7°C° 0 mm 2 mps 675 mmHg 88%
    22:00 +8°C° 0 mm 1 mps 675 mmHg 87%
    23:00 +8°C° 0 mm 1 mps 675 mmHg 87%
    Show more